Binhai current weather conditions

sailwx.info

Wind from 030 at 5 knots

Air temperature 4.0° C
Visibility: greater than 2.2 NM
Dewpoint -4.0° C
Present weather: Haze.

Last reported at 2018-Feb-18 03:00 UTC.
Time now 2018-Feb-18 03:33 UTC

Location: N 39°07' E 117°21'.
View on Google Maps.

See reports from other nearby stations

  
Tides and Currents Weather Stations Pressure Air Temp Water Temp Dewpoint Dewpoint Depression Visibility Wind Speed Wind Dir Waves Ship Positions
date/time (UTC)wind fromknots sea level pressurealtimeterstation pressurevisibilityair tempwater tempwave heightnotes
2018-Feb-18 03:00 030 5 2.2 4.0 Haze.
2018-Feb-18 02:30 030 3 2.7 3.0 Haze.
2018-Feb-18 02:00 010 3 2.7 2.0 Haze.
2018-Feb-18 01:30 040 3 2.7 1.0 Haze.
2018-Feb-18 01:00 050 3 2.7-0.0 Haze.
2018-Feb-18 00:30 020 5 2.7-0.0 Mist.
2018-Feb-18 00:00 010 5 2.6-0.0 Mist.
2018-Feb-17 23:30 330 3 2.6-1.0 Mist.
2018-Feb-17 23:00 2.4-1.0 Mist.
2018-Feb-17 22:30 030 3 2.4-1.0 Mist.
2018-Feb-17 22:00 030 3 2.4-0.0 Mist.
2018-Feb-17 21:30 040 1 2.3-0.0 Mist.
2018-Feb-17 21:00 030 3 2.2-0.0 Mist.
2018-Feb-17 20:30 340 3 2.2-0.0 Mist.
2018-Feb-17 20:00 040 1 2.2-0.0 Mist.
2018-Feb-17 19:30 040 3 1.9-0.0 Mist.
2018-Feb-17 19:00 080 3 1.9-0.0 Mist.
2018-Feb-17 18:30 070 3 1.9-0.0 Mist.
2018-Feb-17 18:00 080 3 1.9-0.0 Mist.
2018-Feb-17 17:30 350 1 1.9-0.0 Mist.
2018-Feb-17 17:00 140 3 1.9-0.0 Mist.
2018-Feb-17 16:30 120 3 2.2-1.0 Mist.
2018-Feb-17 16:00 2.7-0.0 Haze.
2018-Feb-17 15:30 070 1 2.7-0.0 Haze.
2018-Feb-17 15:00 030 1 3.2 1.0
2018-Feb-17 14:30 020 3 3.2 1.0
2018-Feb-17 14:00 070 1 3.2 1.0
2018-Feb-17 13:30 060 3 3.2 1.0
2018-Feb-17 13:00 080 1 3.2 1.0
2018-Feb-17 12:30 060 1 3.2 1.0
2018-Feb-17 12:00 130 3 2.7 1.0 Haze.
2018-Feb-17 11:30 2.7 1.0 Haze.
2018-Feb-17 11:00 2.7 1.0 Haze.
2018-Feb-17 10:30 160 3 2.7 1.0 Haze.
2018-Feb-17 10:00 120 5 3.2 1.0
2018-Feb-17 09:30 150 7 5.4 1.0
2018-Feb-17 09:00 140 5 5.4 2.0
2018-Feb-17 08:30 120 3 5.4 2.0
2018-Feb-17 08:00 140 3 5.4 2.0
2018-Feb-17 07:30 160 5 5.4 2.0
2018-Feb-17 07:00 160 5 5.4 3.0
2018-Feb-17 06:30 170 5 5.4 3.0
2018-Feb-17 06:00 180 5 5.4 3.0
2018-Feb-17 05:30 160 5 5.4 4.0
2018-Feb-17 05:00 170 3 5.4 4.0
2018-Feb-17 04:30 150 3 5.4 4.0
2018-Feb-17 04:00 110 5 5.4 3.0
2018-Feb-17 03:30 120 3 5.4 3.0
2018-Feb-17 03:00 100 3 5.4 2.0
2018-Feb-17 02:30 100 5 5.4 1.0
2018-Feb-17 02:00 110 5 3.8-0.0
2018-Feb-17 01:30 100 3 3.8-2.0
2018-Feb-17 01:00 110 3 2.7-4.0 Mist.
2018-Feb-17 00:30 090 3 2.7-5.0 Mist.
2018-Feb-17 00:00 350 1 2.7-6.0 Mist.
2018-Feb-16 23:30 320 3 3.8-7.0
2018-Feb-16 23:00 330 5 4.3-6.0
2018-Feb-16 22:30 360 3 2.7-7.0 Mist.
2018-Feb-16 22:00 030 3 2.7-7.0 Mist.
2018-Feb-16 21:30 3.2-5.0
2018-Feb-16 21:00 3.2-6.0
2018-Feb-16 20:30 160 5 3.2-6.0
2018-Feb-16 20:00 160 3 2.7-6.0 Mist.
2018-Feb-16 19:30 150 3 2.4-6.0 Mist.
2018-Feb-16 19:00 160 3 1.9-6.0 Mist.
2018-Feb-16 18:30 140 1 1.9-6.0 Mist.
2018-Feb-16 18:00 130 3 2.2-6.0 Mist.
2018-Feb-16 17:30 120 3 2.2-6.0 Mist.
2018-Feb-16 17:00 150 3 2.4-5.0 Mist.
2018-Feb-16 16:30 180 3 2.7-4.0 Mist.
2018-Feb-16 16:00 150 5 3.2-5.0
2018-Feb-16 15:30 170 5 3.2-5.0
2018-Feb-16 15:00 180 3 3.2-4.0
2018-Feb-16 14:30 170 5 3.8-4.0
2018-Feb-16 14:00 170 5 3.8-4.0
2018-Feb-16 13:30 170 7 3.8-4.0
2018-Feb-16 13:00 170 7 4.3-2.0
2018-Feb-16 12:30 170 7 4.3-2.0
2018-Feb-16 12:00 170 9 3.8-2.0
2018-Feb-16 11:30 170 9 3.8-1.0
2018-Feb-16 11:00 150 9 4.3-1.0
2018-Feb-16 10:30 100 3 5.4 1.0
2018-Feb-16 10:00 110 5 5.4 3.0
2018-Feb-16 09:30 080 3 5.4 5.0
2018-Feb-16 09:00 060 3 5.4 6.0
2018-Feb-16 08:30 020 7 5.4 6.0
2018-Feb-16 08:00 040 9 5.4 6.0
2018-Feb-16 07:30 030 11 5.4 6.0
2018-Feb-16 07:00 020 15 5.4 7.0
2018-Feb-16 06:30 360 13 5.4 7.0
2018-Feb-16 06:00 020 13 5.4 7.0
2018-Feb-16 05:30 010 13 5.4 7.0
2018-Feb-16 05:00 010 13 5.4 7.0
2018-Feb-16 04:30 010 11 5.4 7.0
2018-Feb-16 04:00 010 11 4.3 5.0
2018-Feb-16 03:30 020 13 3.8 5.0
2018-Feb-16 03:00 020 11 3.2 4.0